Tracking 29747 objects as of 10-Oct-2024
HD Live streaming from Space Station
objects crossing your sky now

DELTA 1 DEB

Track DELTA 1 DEB now!
10-day predictions


NORAD ID: 21270
Int'l Code: 1975-052F
Perigee: 1,082.6 km
Apogee: 1,774.8 km
Inclination: 99.4 °
Period: 114.3 minutes
Semi major axis: 7799 km
RCS: 0.0854 m2 (small)
Launch date: June 12, 1975
Source: United States (US)
Launch site: AIR FORCE WESTERN TEST RANGE (AFWTR)

Note: This is SATELLITE DEBRIS
Your satellite tracking list
Your tracking list is empty




NASA's NSSDC Master Catalog

Two Line Element Set (TLE):
1 21270U 75052F   24283.30754917  .00001703  00000-0  68201-2 0  9996
2 21270  99.4478  61.2901 0443742  95.4126 330.6148 12.60346576531559
Source of the keplerian elements: AFSPC